Location: *
(42.0175°N, 9.4056°E)
Time: 05:27:53
(UTC+00:00)

Cosmos 2333 Rocket - Pass Details

Date: 25 August 2019
Orbit: 841 x 861 km, 70.8° (Epoch: 22 September)

Event Time Altitude Azimuth Distance (km) Brightness Sun altitude
Rises 22:42:52 0° 341° (NNW) 3,410 6.3 -36.5°
Reaches altitude 10° 22:45:29 10° 349° (NNW) 2,473 5.4 -36.6°
Enters shadow 22:48:52 31° 16° (NNE) 1,454 3.8 -36.8°
